When you browse on this site, cookies collect data to enhance your experience and personalize the content and advertising you see.
Visit our Privacy Policy to learn more. By continuing to use the site, you agree to this use of cookies and data.
  • In Spain
  • List of Countries
  • For 7 days
  • Water Temperature
  • Weather Map
  • Weather Widgets
  • user-avatar
    Login

    Hourly Weather Gjirokaster

    Today, 30 March, Monday

    Time Temperature Precipitation Wind Pressure Humidity
    00:00 +3°C° 0 mm 1 mps 646 mmHg 89%
    01:00 +3°C° 0 mm 1 mps 646 mmHg 89%
    02:00 +3°C° 0 mm 1 mps 646 mmHg 88%
    03:00 +3°C° 0 mm 1 mps 646 mmHg 87%
    04:00 +2°C° 0 mm 1 mps 645 mmHg 86%
    05:00 +3°C° 0 mm 1 mps 646 mmHg 83%
    06:00 +4°C° 0 mm 1 mps 646 mmHg 80%
    07:00 +5°C° 0 mm 1 mps 646 mmHg 76%
    08:00 +7°C° 0 mm 1 mps 647 mmHg 69%
    09:00 +8°C° 0 mm 1 mps 647 mmHg 63%
    10:00 +10°C° 0 mm 1 mps 648 mmHg 56%
    11:00 +10°C° 0.2 mm 1 mps 648 mmHg 56%
    12:00 +10°C° 0.2 mm 1 mps 648 mmHg 56%
    13:00 +10°C° 0.2 mm 1 mps 647 mmHg 56%
    14:00 +10°C° 0.4 mm 1 mps 647 mmHg 60%
    15:00 +8°C° 0.4 mm 2 mps 646 mmHg 64%
    16:00 +8°C° 0.4 mm 2 mps 646 mmHg 69%
    17:00 +8°C° 0.2 mm 1 mps 646 mmHg 73%
    18:00 +7°C° 0.2 mm 1 mps 646 mmHg 77%
    19:00 +6°C° 0.2 mm 1 mps 646 mmHg 81%
    20:00 +6°C° 0.1 mm 1 mps 646 mmHg 82%
    21:00 +6°C° 0.1 mm 1 mps 647 mmHg 82%
    22:00 +6°C° 0.1 mm 1 mps 647 mmHg 83%
    23:00 +6°C° 0.2 mm 1 mps 647 mmHg 83%

    Tomorrow, 31 March, Tuesday

    Time Temperature Precipitation Wind Pressure Humidity
    00:00 +6°C° 0.2 mm 1 mps 647 mmHg 84%
    01:00 +6°C° 0.2 mm 1 mps 647 mmHg 84%
    02:00 +5°C° 0.2 mm 1 mps 647 mmHg 84%
    03:00 +5°C° 0.2 mm 1 mps 647 mmHg 84%
    04:00 +5°C° 0.2 mm 1 mps 647 mmHg 84%
    05:00 +6°C° 0 mm 1 mps 647 mmHg 82%
    06:00 +6°C° 0 mm 1 mps 647 mmHg 81%
    07:00 +6°C° 0 mm 1 mps 647 mmHg 79%
    08:00 +7°C° 0.1 mm 1 mps 648 mmHg 74%
    09:00 +8°C° 0.1 mm 1 mps 648 mmHg 69%
    10:00 +9°C° 0.1 mm 1 mps 649 mmHg 63%
    11:00 +9°C° 0.7 mm 1 mps 649 mmHg 64%
    12:00 +8°C° 0.7 mm 2 mps 648 mmHg 65%
    13:00 +8°C° 0.7 mm 2 mps 648 mmHg 66%
    14:00 +8°C° 0.7 mm 3 mps 648 mmHg 68%
    15:00 +7°C° 0.7 mm 3 mps 648 mmHg 70%
    16:00 +7°C° 0.7 mm 3 mps 648 mmHg 72%
    17:00 +6°C° 0.2 mm 2 mps 648 mmHg 77%
    18:00 +5°C° 0.2 mm 2 mps 648 mmHg 82%
    19:00 +3°C° 0.2 mm 2 mps 648 mmHg 86%
    20:00 +3°C° 0 mm 2 mps 648 mmHg 87%
    21:00 +3°C° 0 mm 2 mps 648 mmHg 88%
    22:00 +2°C° 0 mm 2 mps 648 mmHg 89%
    23:00 +2°C° 0.1 mm 2 mps 648 mmHg 89%

    Day after tomorrow, 1 April, Wednesday

    Time Temperature Precipitation Wind Pressure Humidity
    00:00 +2°C° 0.1 mm 2 mps 648 mmHg 89%
    01:00 +2°C° 0.1 mm 2 mps 648 mmHg 89%
    02:00 +2°C° 0.6 mm 2 mps 647 mmHg 90%
    03:00 +3°C° 0.6 mm 1 mps 647 mmHg 91%
    04:00 +3°C° 0.6 mm 1 mps 647 mmHg 93%
    05:00 +3°C° 1 mm 1 mps 647 mmHg 93%
    06:00 +1°C° 1 mm 2 mps 646 mmHg 93%
    07:00 +1°C° 1 mm 2 mps 646 mmHg 94%
    08:00 +1°C° 1.4 mm 2 mps 646 mmHg 94%
    09:00 -1°C° 1.4 mm 2 mps 646 mmHg 94%
    10:00 -1°C° 1.4 mm 2 mps 645 mmHg 94%
    11:00 -1°C° 1 mm 2 mps 645 mmHg 92%
    12:00 -1°C° 1 mm 2 mps 645 mmHg 91%
    13:00 -1°C° 1 mm 2 mps 645 mmHg 90%
    14:00 -1°C° 0.7 mm 3 mps 645 mmHg 87%
    15:00 -1°C° 0.7 mm 3 mps 645 mmHg 85%
    16:00 -2°C° 0.7 mm 4 mps 645 mmHg 82%
    17:00 -2°C° 0.2 mm 3 mps 645 mmHg 84%
    18:00 -2°C° 0.2 mm 3 mps 645 mmHg 86%
    19:00 -4°C° 0.2 mm 3 mps 645 mmHg 89%
    20:00 -4°C° 0 mm 3 mps 645 mmHg 89%
    21:00 -4°C° 0 mm 2 mps 646 mmHg 89%
    22:00 -4°C° 0 mm 2 mps 646 mmHg 90%
    23:00 -4°C° 0 mm 2 mps 646 mmHg 89%

    2 April, Thursday

    Time Temperature Precipitation Wind Pressure Humidity
    00:00 -4°C° 0 mm 2 mps 646 mmHg 89%
    01:00 -5°C° 0 mm 2 mps 646 mmHg 88%
    02:00 -5°C° 0 mm 2 mps 646 mmHg 88%
    03:00 -5°C° 0 mm 2 mps 646 mmHg 87%
    04:00 -5°C° 0 mm 2 mps 646 mmHg 86%
    05:00 -4°C° 0 mm 2 mps 646 mmHg 82%
    06:00 -3°C° 0 mm 2 mps 647 mmHg 78%
    07:00 0°C° 0 mm 1 mps 647 mmHg 74%
    08:00 +1°C° 0 mm 1 mps 648 mmHg 69%
    09:00 +3°C° 0 mm 1 mps 648 mmHg 64%
    10:00 +5°C° 0 mm 1 mps 649 mmHg 58%
    11:00 +6°C° 0 mm 1 mps 649 mmHg 58%
    12:00 +6°C° 0 mm 1 mps 649 mmHg 57%
    13:00 +6°C° 0 mm 2 mps 650 mmHg 57%
    14:00 +6°C° 0 mm 2 mps 649 mmHg 60%
    15:00 +5°C° 0 mm 2 mps 649 mmHg 63%
    16:00 +4°C° 0 mm 2 mps 648 mmHg 66%
    17:00 +4°C° 0 mm 1 mps 648 mmHg 72%
    18:00 +3°C° 0 mm 1 mps 648 mmHg 77%
    19:00 0°C° 0 mm 0 mps 648 mmHg 83%
    20:00 0°C° 0 mm 0 mps 648 mmHg 83%
    21:00 0°C° 0 mm 0 mps 648 mmHg 83%
    22:00 0°C° 0 mm 0 mps 649 mmHg 83%
    23:00 +1°C° 0 mm 1 mps 648 mmHg 82%

    3 April, Friday

    Time Temperature Precipitation Wind Pressure Humidity
    00:00 0°C° 0 mm 1 mps 648 mmHg 82%
    01:00 0°C° 0 mm 1 mps 648 mmHg 81%
    02:00 0°C° 0 mm 1 mps 648 mmHg 81%
    03:00 0°C° 0 mm 1 mps 647 mmHg 81%
    04:00 0°C° 0 mm 1 mps 647 mmHg 81%
    05:00 +1°C° 0 mm 1 mps 648 mmHg 79%
    06:00 +2°C° 0 mm 1 mps 648 mmHg 76%
    07:00 +2°C° 0 mm 1 mps 649 mmHg 74%
    08:00 +4°C° 0 mm 1 mps 649 mmHg 69%
    09:00 +5°C° 0 mm 1 mps 649 mmHg 64%
    10:00 +6°C° 0 mm 1 mps 650 mmHg 60%
    11:00 +7°C° 0 mm 1 mps 650 mmHg 60%
    12:00 +7°C° 0 mm 1 mps 650 mmHg 59%
    13:00 +7°C° 0 mm 2 mps 650 mmHg 59%
    14:00 +6°C° 0 mm 2 mps 650 mmHg 63%
    15:00 +6°C° 0 mm 2 mps 649 mmHg 67%
    16:00 +5°C° 0 mm 2 mps 649 mmHg 71%
    17:00 +4°C° 0 mm 2 mps 649 mmHg 75%
    18:00 +3°C° 0 mm 2 mps 649 mmHg 80%
    19:00 +2°C° 0 mm 2 mps 649 mmHg 84%
    20:00 +3°C° 0 mm 1 mps 649 mmHg 85%
    21:00 +2°C° 0 mm 1 mps 649 mmHg 86%
    22:00 +2°C° 0 mm 1 mps 650 mmHg 87%
    23:00 +2°C° 0 mm 1 mps 650 mmHg 86%

    4 April, Saturday

    Time Temperature Precipitation Wind Pressure Humidity
    00:00 +1°C° 0 mm 1 mps 650 mmHg 85%
    01:00 +1°C° 0 mm 1 mps 650 mmHg 84%
    02:00 +1°C° 0 mm 1 mps 650 mmHg 83%
    03:00 +1°C° 0 mm 1 mps 650 mmHg 83%
    04:00 +1°C° 0 mm 1 mps 650 mmHg 82%
    05:00 +2°C° 0 mm 1 mps 650 mmHg 79%
    06:00 +3°C° 0 mm 1 mps 651 mmHg 76%
    07:00 +4°C° 0 mm 1 mps 652 mmHg 74%
    08:00 +5°C° 0 mm 1 mps 652 mmHg 66%
    09:00 +7°C° 0 mm 1 mps 653 mmHg 59%
    10:00 +9°C° 0 mm 1 mps 654 mmHg 51%
    11:00 +10°C° 0 mm 1 mps 654 mmHg 49%
    12:00 +10°C° 0 mm 1 mps 654 mmHg 47%
    13:00 +11°C° 0 mm 1 mps 655 mmHg 45%
    14:00 +10°C° 0 mm 2 mps 654 mmHg 49%
    15:00 +9°C° 0 mm 2 mps 654 mmHg 52%
    16:00 +9°C° 0 mm 2 mps 654 mmHg 56%
    17:00 +7°C° 0 mm 2 mps 654 mmHg 62%
    18:00 +7°C° 0 mm 1 mps 654 mmHg 68%
    19:00 +6°C° 0 mm 1 mps 654 mmHg 74%
    20:00 +5°C° 0 mm 1 mps 654 mmHg 74%
    21:00 +5°C° 0 mm 1 mps 655 mmHg 73%
    22:00 +5°C° 0 mm 1 mps 655 mmHg 73%
    23:00 +3°C° 0 mm 2 mps 655 mmHg 72%
    Show more